Torna al catalogo

CZ-6A DEB

AttivoPO
NORAD 54307·DEBRIS·🇨🇳 China

Lanciato Nov 11, 2022 da Taiyuan Satellite Launch Center

Loading…

Prossimi Passaggi (prossime 24 ore)

TLE

AggiornatoSource: Space-Track

Epoca: Sep 14, 2026, 10:57 UTC

1 54307U 22151BA  26257.45671897  .00056069  00000-0  28733-2 0  9990
2 54307  98.5525 338.1593 0028017 294.2799  65.5505 15.16019831133050

Traccia CZ-6A DEB in tempo reale con AllMySat

Download on the App Store